Home   Weather   Mexico City   Past weeks
Flag for Mexico

Past Weather in Mexico City, Ciudad de México, Mexico — Yesterday and Last 2 Weeks

Now
66 °F

Passing clouds.


Feels Like: 66 °F
Forecast: 79 / 57 °F
Wind: 7 mph from Northwest

Location: Mexico City / Licenci

Current Time: May 25, 2019 at 2:56:28 am

Latest Report: May 25, 2019 at 1:45 am


Visibility: 7 mi

Pressure: 30.30 "Hg (23.31 "Hg at 2241m altitude)

Humidity: 49%

Dew Point: 46 °F

Location of Mexico CityLocation

Past Weather in Mexico City — Graph

°F

Mexico City Temperature Yesterday

Maximum temperature yesterday: 79 °F (at 3:47 pm)
Minimum temperature yesterday: 59 °F (at 5:44 am)
Average temperature yesterday: 69 °F

High & Low Weather Summary for the Past Weeks

 TemperatureHumidityPressure
High86 °F (May 14, 2:30 pm)88% (May 17, 5:48 am)30.41 "Hg (May 17, 5:48 am)
Low55 °F (May 17, 5:48 am)5% (May 10, 1:50 pm)29.28 "Hg (May 17, 3:44 pm)
Average71 °F36%30.07 "Hg
* Reported May 10 12:45 am — May 25 12:46 am, Mexico City. Weather by CustomWeather, © 2019

Note: Actual official high and low records may vary slightly from our data, if they occured in-between our weather recording intervals... More about our weather records

Advertising

Mexico City Weather History for the Previous 24 Hours

Scroll right to see more
 ConditionsComfort  
Time TempWeatherWind HumidityBarometerVisibility
12:46 am
Sat, May 25
68 °FPassing clouds.12 mph43%29.73 "Hg7 mi
11:45 pm
Fri, May 24
70 °FPassing clouds.9 mph43%30.31 "Hg7 mi
10:45 pm68 °FMostly cloudy.8 mph43%30.30 "Hg7 mi
9:46 pm70 °FOvercast.13 mph43%29.72 "Hg7 mi
8:43 pm72 °FMostly cloudy.20 mph44%30.24 "Hg6 mi
7:44 pm73 °FMostly cloudy.3 mph41%30.21 "Hg4 mi
6:57 pm75 °FMostly cloudy.7 mph39%29.66 "Hg4 mi
5:46 pm75 °FMostly cloudy.14 mph41%30.20 "Hg5 mi
4:48 pm77 °FMostly cloudy.9 mph39%30.20 "Hg5 mi
3:47 pm79 °FPartly sunny.10 mph34%29.60 "Hg5 mi
2:45 pm77 °FPartly sunny.9 mph32%30.24 "Hg5 mi
1:48 pm77 °FScattered clouds.9 mph30%30.27 "Hg5 mi
12:52 pm73 °FBroken clouds.7 mph38%29.75 "Hg5 mi
11:45 am72 °FBroken clouds.6 mph44%30.32 "Hg5 mi
10:45 am70 °FScattered clouds.No wind46%30.33 "Hg5 mi
9:46 am66 °FBroken clouds.6 mph52%29.80 "Hg6 mi
8:45 am63 °FPartly sunny.5 mph59%30.32 "Hg6 mi
7:45 am63 °FPartly sunny.6 mph64%30.30 "Hg6 mi
6:48 am59 °FPartly cloudy.5 mph68%29.71 "Hg6 mi
5:44 am59 °FPassing clouds.5 mph68%30.25 "Hg8 mi
4:44 am61 °FPassing clouds.3 mph63%30.26 "Hg8 mi
3:46 am63 °FPartly cloudy.2 mph56%29.66 "Hg8 mi
2:40 am63 °FPassing clouds.6 mph59%30.28 "Hg6 mi
Weather by CustomWeather, © 2019

See weather overview